EW5937 Weather Reports


time (UTC)temp
C
wind
direction
speed
KPH
gust
KPH
rain 1hr
cm
rain 24hr
cm
rain mn
cm
humidity
%
barometer
mb
20240416031933 8 115 0.0 3.2 0.00 0.00 0.00 42 996.6
20240416030933 8 82 1.6 6.4 0.00 0.00 0.00 42 996.4
20240416025933 8 78 3.2 6.4 0.00 0.00 0.00 43 995.9
20240416024933 8 85 4.8 8.0 0.00 0.00 0.00 44 996.1
20240416023933 8 57 6.4 8.0 0.00 0.00 0.00 44 996.1
20240416022933 9 69 3.2 8.0 0.00 0.00 0.00 43 996.4
20240416021933 8 58 1.6 9.7 0.00 0.00 0.00 45 996.5
20240416020933 8 46 3.2 17.7 0.00 0.00 0.00 46 996.2
20240416015933 8 62 4.8 20.9 0.00 0.00 0.00 47 996.0
20240416014933 9 82 3.2 16.1 0.00 0.00 0.00 48 995.9
20240416013932 9 73 6.4 12.9 0.00 0.00 0.00 48 995.8
20240416012933 10 70 8.0 19.3 0.00 0.00 0.00 48 995.5
20240416011932 10 62 8.0 16.1 0.00 0.00 0.00 44 995.2
20240416010932 11 48 3.2 12.9 0.00 0.00 0.00 42 995.0
20240416005932 11 315 6.4 14.5 0.00 0.00 0.00 41 994.6
20240416004933 11 61 6.4 17.7 0.00 0.00 0.00 41 994.4
20240416003932 11 106 3.2 11.3 0.00 0.00 0.00 40 994.4
20240416002932 11 82 14.5 20.9 0.00 0.00 0.00 40 994.4
20240416001932 12 145 6.4 17.7 0.00 0.00 0.00 39 993.9
20240416000932 12 42 6.4 16.1 0.00 0.00 0.00 38 993.7
20240415235932 12 311 3.2 14.5 0.00 0.00 0.00 36 993.6
20240415234932 13 119 6.4 14.5 0.00 0.00 0.00 35 993.5
20240415233932 13 100 4.8 16.1 0.00 0.00 0.00 33 993.0
20240415232932 13 120 8.0 22.5 0.00 0.00 0.00 32 992.8
20240415231932 15 103 11.3 17.7 0.00 0.00 0.00 29 992.6
20240415230932 17 335 6.4 17.7 0.00 0.00 0.00 21 992.2
20240415225932 18 350 4.8 14.5 0.00 0.00 0.00 18 991.2
20240415224932 19 89 4.8 14.5 0.00 0.00 0.00 17 990.7
20240415223932 21 142 4.8 16.1 0.00 0.00 0.00 10 990.4
20240415222933 22 167 4.8 20.9 0.00 0.00 0.00 9 990.1
20240415221932 22 115 4.8 17.7 0.00 0.00 0.00 10 989.9
20240415220932 22 119 0.0 14.5 0.00 0.00 0.00 9 989.7
20240415215932 22 117 4.8 16.1 0.00 0.00 0.00 8 989.6
20240415214932 22 136 6.4 12.9 0.00 0.00 0.00 8 989.5
20240415213932 22 136 3.2 22.5 0.00 0.00 0.00 9 989.4
20240415212932 22 108 11.3 22.5 0.00 0.00 0.00 8 989.5
20240415211932 22 75 4.8 24.1 0.00 0.00 0.00 8 989.6
20240415210932 23 143 8.0 22.5 0.00 0.00 0.00 8 989.5
20240415205932 23 108 4.8 20.9 0.00 0.00 0.00 8 989.6
20240415204932 23 57 8.0 19.3 0.00 0.00 0.00 8 989.7
20240415203932 23 101 12.9 24.1 0.00 0.00 0.00 8 989.7
20240415202932 23 195 9.7 17.7 0.00 0.00 0.00 7 989.6
20240415201932 23 143 6.4 24.1 0.00 0.00 0.00 7 989.7
20240415200932 23 161 9.7 19.3 0.00 0.00 0.00 8 989.9
20240415195932 23 287 1.6 19.3 0.00 0.00 0.00 8 990.1
20240415194932 23 95 3.2 12.9 0.00 0.00 0.00 9 990.2
20240415193932 23 188 8.0 29.0 0.00 0.00 0.00 8 990.5
20240415192932 24 136 6.4 12.9 0.00 0.00 0.00 8 990.5
20240415191932 24 162 9.7 20.9 0.00 0.00 0.00 10 990.6
20240415190932 23 140 4.8 14.5 0.00 0.00 0.00 10 990.9
20240415185932 24 106 0.0 17.7 0.00 0.00 0.00 10 991.0
20240415184932 23 144 4.8 14.5 0.00 0.00 0.00 9 991.4
20240415183932 24 96 6.4 17.7 0.00 0.00 0.00 10 991.6
20240415182931 24 112 0.0 4.8 0.00 0.00 0.00 13 991.8
20240415181931 23 181 0.0 16.1 0.00 0.00 0.00 11 992.0
20240415180931 23 233 0.0 9.7 0.00 0.00 0.00 15 992.3
20240415175931 23 124 6.4 11.3 0.00 0.00 0.00 14 992.6
20240415174931 22 282 0.0 8.0 0.00 0.00 0.00 21 992.7
20240415173931 21 354 0.0 9.7 0.00 0.00 0.00 24 993.0
20240415172932 21 4 4.8 6.4 0.00 0.00 0.00 25 993.7
20240415171931 20 307 0.0 4.8 0.00 0.00 0.00 21 994.0
20240415170931 20 20 1.6 4.8 0.00 0.00 0.00 25 994.3
20240415165931 20 57 3.2 6.4 0.00 0.00 0.00 26 994.7
20240415164931 20 312 1.6 6.4 0.00 0.00 0.00 26 994.7
20240415163931 20 339 0.0 6.4 0.00 0.00 0.00 25 994.9
20240415162931 19 20 0.0 3.2 0.00 0.00 0.00 23 995.3
20240415161931 18 131 0.0 1.6 0.00 0.00 0.00 22 995.5
20240415160931 17 68 0.0 6.4 0.00 0.00 0.00 24 995.6
20240415155931 17 159 0.0 3.2 0.00 0.00 0.00 26 995.7
20240415154931 17 345 0.0 3.2 0.00 0.00 0.00 25 996.1
20240415153931 17 317 1.6 3.2 0.00 0.00 0.00 26 996.3
20240415152931 16 12 0.0 3.2 0.00 0.00 0.00 29 996.6
20240415151931 15 335 0.0 1.6 0.00 0.00 0.00 30 996.7
20240415150931 15 27 0.0 3.2 0.00 0.00 0.00 28 996.9
20240415145931 15 56 0.0 3.2 0.00 0.00 0.00 31 997.1
20240415144931 15 52 0.0 1.6 0.00 0.00 0.00 32 997.2
20240415143931 15 69 0.0 3.2 0.00 0.00 0.00 31 997.3
20240415142931 15 116 0.0 1.6 0.00 0.00 0.00 30 997.4
20240415141931 13 142 0.0 1.6 0.00 0.00 0.00 30 997.5
20240415140931 12 127 0.0 0.0 0.00 0.00 0.00 32 997.7
20240415135931 12 127 0.0 0.0 0.00 0.00 0.00 35 997.7
20240415134931 11 248 0.0 1.6 0.00 0.00 0.00 34 997.8
20240415133931 10 236 0.0 0.0 0.00 0.00 0.00 38 997.9
20240415132931 8 236 0.0 0.0 0.00 0.00 0.00 37 997.8
20240415132130 8 236 0.0 0.0 0.00 0.00 0.00 37 997.8
20240415131130 7 236 0.0 0.0 0.00 0.00 0.00 39 997.9
20240415130130 6 236 0.0 0.0 0.00 0.00 0.00 40 997.8
20240415125130 7 236 0.0 0.0 0.00 0.00 0.00 38 997.8
20240415124130 7 236 0.0 1.6 0.00 0.00 0.00 38 997.8
20240415123130 6 236 0.0 0.0 0.00 0.00 0.00 37 997.8
20240415122130 7 236 0.0 1.6 0.00 0.00 0.00 35 997.9
20240415121130 7 226 0.0 1.6 0.00 0.00 0.00 37 997.7
20240415120130 7 183 0.0 0.0 0.00 0.00 0.00 37 997.8
20240415115130 7 173 0.0 0.0 0.00 0.00 0.00 36 997.9
20240415114130 7 131 0.0 0.0 0.00 0.00 0.00 36 998.0
20240415113130 8 131 0.0 1.6 0.00 0.00 0.00 34 998.2
20240415112130 8 262 0.0 0.0 0.00 0.00 0.00 30 998.0
20240415111129 9 262 0.0 4.8 0.00 0.00 0.00 29 998.0
20240415110130 10 129 0.0 0.0 0.00 0.00 0.00 26 997.8
20240415105129 9 134 0.0 1.6 0.00 0.00 0.00 28 997.9
20240415104129 9 224 0.0 0.0 0.00 0.00 0.00 29 997.8
20240415103129 10 224 0.0 0.0 0.00 0.00 0.00 28 998.0
20240415102129 10 223 0.0 1.6 0.00 0.00 0.00 27 998.0
20240415101129 10 121 0.0 0.0 0.00 0.00 0.00 30 998.0
20240415100130 11 121 0.0 0.0 0.00 0.00 0.00 23 997.8
20240415095130 10 121 0.0 0.0 0.00 0.00 0.00 24 997.9
20240415094129 10 107 0.0 1.6 0.00 0.00 0.00 24 997.8
20240415093130 10 122 0.0 1.6 0.00 0.00 0.00 26 998.1
20240415092129 10 209 0.0 1.6 0.00 0.00 0.00 27 998.3
20240415091129 11 136 0.0 1.6 0.00 0.00 0.00 26 998.4
20240415090129 11 119 0.0 1.6 0.00 0.00 0.00 25 998.2
20240415085129 11 122 0.0 1.6 0.00 0.00 0.00 25 998.3
20240415084129 12 200 0.0 3.2 0.00 0.00 0.00 25 998.3
20240415083130 12 112 0.0 3.2 0.00 0.00 0.00 25 998.4
20240415082129 12 148 0.0 6.4 0.00 0.00 0.00 26 998.5
20240415081129 11 108 0.0 4.8 0.00 0.00 0.00 28 998.8
20240415080129 11 101 0.0 1.6 0.00 0.00 0.00 30 998.9
20240415075129 11 198 0.0 1.6 0.00 0.00 0.00 29 999.0
20240415074129 11 217 0.0 0.0 0.00 0.00 0.00 31 999.3
20240415073129 11 217 0.0 1.6 0.00 0.00 0.00 31 999.3
20240415072129 11 255 0.0 0.0 0.00 0.00 0.00 32 999.4
20240415071129 11 256 0.0 0.0 0.00 0.00 0.00 32 999.7
20240415070129 11 161 0.0 0.0 0.00 0.00 0.00 32 1000.0
20240415065129 11 161 0.0 0.0 0.00 0.00 0.00 30 999.9
20240415064129 11 160 0.0 0.0 0.00 0.00 0.00 30 1000.0
20240415063129 12 160 0.0 0.0 0.00 0.00 0.00 29 1000.1
20240415062129 12 165 0.0 0.0 0.00 0.00 0.00 28 1000.2
20240415061129 12 154 0.0 4.8 0.00 0.00 0.00 28 1000.3
20240415060129 12 179 0.0 0.0 0.00 0.00 0.00 29 1000.4
20240415055129 12 179 0.0 0.0 0.00 0.00 0.00 28 1000.5
20240415054129 12 160 0.0 0.0 0.00 0.00 0.00 28 1000.6
20240415053129 13 160 0.0 0.0 0.00 0.00 0.00 27 1000.7
20240415052129 13 161 0.0 0.0 0.00 0.00 0.00 26 1000.9
20240415051129 14 201 0.0 0.0 0.00 0.00 0.00 25 1001.1
20240415050129 15 204 0.0 0.0 0.00 0.00 0.00 25 1001.0
20240415045129 15 149 0.0 1.6 0.00 0.00 0.00 23 1001.2
20240415044129 16 137 0.0 3.2 0.00 0.00 0.00 23 1001.2
20240415043129 16 124 1.6 1.6 0.00 0.00 0.00 22 1001.3
20240415042129 17 119 0.0 4.8 0.00 0.00 0.00 22 1001.5
20240415041128 17 205 0.0 4.8 0.00 0.00 0.00 20 1001.6
20240415040128 17 102 0.0 9.7 0.00 0.00 0.00 20 1001.6
20240415035129 18 117 3.2 9.7 0.00 0.00 0.00 19 1001.6
20240415034129 18 146 3.2 11.3 0.00 0.00 0.00 18 1001.5
20240415033129 20 136 4.8 9.7 0.00 0.00 0.00 17 1001.3